TimeMST,TemperatureF,Dew PointF,Humidity,Sea Level PressureIn,VisibilityMPH,Wind Direction,Wind SpeedMPH,Gust SpeedMPH,PrecipitationIn,Events,Conditions,WindDirDegrees,DateUTC
12:15 AM,10.9,4.8,76,29.99,10.0,Calm,Calm,-,N/A,,Clear,0,2012-12-11 07:15:00
12:35 AM,9.1,3.9,79,29.98,10.0,Calm,Calm,-,N/A,,Clear,0,2012-12-11 07:35:00
12:55 AM,9.5,4.1,79,29.98,10.0,Calm,Calm,-,N/A,,Clear,0,2012-12-11 07:55:00
1:15 AM,8.1,3.6,82,29.98,10.0,West,3.5,-,N/A,,Clear,280,2012-12-11 08:15:00
1:35 AM,7.3,3.2,83,29.97,10.0,WNW,3.5,-,N/A,,Clear,300,2012-12-11 08:35:00
1:55 AM,9.3,5.0,83,29.97,10.0,NW,3.5,-,N/A,,Clear,320,2012-12-11 08:55:00
2:15 AM,7.9,2.3,78,29.98,10.0,Calm,Calm,-,N/A,,Clear,0,2012-12-11 09:15:00
2:35 AM,7.7,4.6,87,29.98,10.0,Calm,Calm,-,N/A,,Clear,0,2012-12-11 09:35:00
2:55 AM,9.3,5.0,83,29.98,10.0,Calm,Calm,-,N/A,,Clear,0,2012-12-11 09:55:00
3:15 AM,7.3,3.6,85,29.99,10.0,Calm,Calm,-,N/A,,Clear,0,2012-12-11 10:15:00
3:35 AM,6.4,3.4,87,29.99,10.0,Calm,Calm,-,N/A,,Clear,0,2012-12-11 10:35:00
3:55 AM,8.4,5.5,88,30.00,10.0,Calm,Calm,-,N/A,,Clear,0,2012-12-11 10:55:00
4:15 AM,8.2,3.6,81,30.00,10.0,Calm,Calm,-,N/A,,Clear,0,2012-12-11 11:15:00
4:35 AM,6.3,2.8,86,29.99,10.0,Calm,Calm,-,N/A,,Clear,0,2012-12-11 11:35:00
4:55 AM,6.3,3.0,87,30.00,10.0,Calm,Calm,-,N/A,,Clear,0,2012-12-11 11:55:00
5:15 AM,5.9,2.1,84,30.00,10.0,Calm,Calm,-,N/A,,Clear,0,2012-12-11 12:15:00
5:35 AM,6.3,0.9,78,30.00,10.0,Calm,Calm,-,N/A,,Clear,0,2012-12-11 12:35:00
5:55 AM,4.5,0.9,85,30.00,10.0,Calm,Calm,-,N/A,,Clear,0,2012-12-11 12:55:00
6:15 AM,4.3,-0.0,82,30.00,10.0,Calm,Calm,-,N/A,,Clear,0,2012-12-11 13:15:00
6:35 AM,5.9,1.9,84,30.00,10.0,Calm,Calm,-,N/A,,Clear,0,2012-12-11 13:35:00
6:55 AM,4.8,0.7,83,30.01,10.0,Calm,Calm,-,N/A,,Clear,0,2012-12-11 13:55:00
7:15 AM,4.1,0.5,85,30.02,10.0,Calm,Calm,-,N/A,,Clear,0,2012-12-11 14:15:00
7:35 AM,5.7,1.9,84,30.03,10.0,Calm,Calm,-,N/A,,Clear,0,2012-12-11 14:35:00
7:55 AM,6.4,2.3,83,30.03,10.0,Calm,Calm,-,N/A,,Clear,0,2012-12-11 14:55:00
8:15 AM,11.1,6.6,82,30.03,10.0,Calm,Calm,-,N/A,,Clear,0,2012-12-11 15:15:00
8:35 AM,14.4,7.5,74,30.03,10.0,Calm,Calm,-,N/A,,Clear,0,2012-12-11 15:35:00
8:55 AM,15.6,5.7,65,30.04,10.0,Calm,Calm,-,N/A,,Clear,0,2012-12-11 15:55:00
9:15 AM,17.4,7.2,64,30.04,10.0,Calm,Calm,-,N/A,,Clear,0,2012-12-11 16:15:00
9:35 AM,19.4,7.5,60,30.05,10.0,Calm,Calm,-,N/A,,Clear,0,2012-12-11 16:35:00
9:55 AM,21.2,6.1,52,30.05,10.0,Calm,Calm,-,N/A,,Clear,0,2012-12-11 16:55:00
10:15 AM,23.0,5.7,48,30.05,10.0,Calm,Calm,-,N/A,,Clear,0,2012-12-11 17:15:00
10:35 AM,24.8,3.4,40,30.05,10.0,South,5.8,-,N/A,,Clear,190,2012-12-11 17:35:00
10:55 AM,24.8,3.4,40,30.05,10.0,SSW,4.6,-,N/A,,Clear,210,2012-12-11 17:55:00
11:15 AM,26.2,1.9,35,30.05,10.0,SSW,5.8,-,N/A,,Clear,210,2012-12-11 18:15:00
11:35 AM,27.5,0.9,32,30.04,10.0,SSW,5.8,-,N/A,,Clear,210,2012-12-11 18:35:00
11:55 AM,28.8,1.9,32,30.03,10.0,WSW,4.6,-,N/A,,Clear,250,2012-12-11 18:55:00
12:15 PM,29.8,1.2,29,30.03,10.0,SSW,6.9,-,N/A,,Clear,200,2012-12-11 19:15:00
12:35 PM,30.4,0.1,27,30.02,10.0,SSW,4.6,-,N/A,,Clear,200,2012-12-11 19:35:00
12:55 PM,30.2,-0.6,27,30.01,10.0,SW,4.6,-,N/A,,Clear,230,2012-12-11 19:55:00
1:15 PM,31.5,0.5,27,30.01,10.0,South,9.2,-,N/A,,Clear,190,2012-12-11 20:15:00
1:35 PM,31.8,1.9,28,30.01,10.0,WSW,8.1,-,N/A,,Clear,240,2012-12-11 20:35:00
1:55 PM,31.8,1.9,28,30.01,10.0,SSW,10.4,-,N/A,,Clear,210,2012-12-11 20:55:00
2:15 PM,32.2,1.4,27,30.00,10.0,SW,5.8,-,N/A,,Clear,230,2012-12-11 21:15:00
2:35 PM,32.0,0.1,26,30.01,10.0,SW,9.2,-,N/A,,Clear,230,2012-12-11 21:35:00
2:55 PM,31.8,-0.4,25,30.01,10.0,SW,4.6,-,N/A,,Clear,220,2012-12-11 21:55:00
3:15 PM,32.0,0.5,26,30.01,10.0,SW,8.1,-,N/A,,Clear,230,2012-12-11 22:15:00
3:35 PM,32.0,0.9,27,30.02,10.0,WSW,9.2,-,N/A,,Clear,250,2012-12-11 22:35:00
3:55 PM,31.8,0.7,27,30.02,10.0,SW,5.8,-,N/A,,Clear,230,2012-12-11 22:55:00
4:15 PM,30.9,-0.4,26,30.03,10.0,WSW,8.1,-,N/A,,Clear,240,2012-12-11 23:15:00
4:35 PM,29.8,-0.4,27,30.03,10.0,WSW,6.9,-,N/A,,Clear,250,2012-12-11 23:35:00
4:55 PM,27.9,0.1,30,30.04,10.0,WSW,3.5,-,N/A,,Clear,250,2012-12-11 23:55:00
5:15 PM,26.2,0.1,32,30.04,10.0,Calm,Calm,-,N/A,Thunderstorm,Clear,0,2012-12-12 00:15:00
5:35 PM,24.4,0.1,35,30.04,10.0,Calm,Calm,-,N/A,,Clear,0,2012-12-12 00:35:00
5:55 PM,22.8,0.5,38,30.05,10.0,Calm,Calm,-,N/A,,Clear,0,2012-12-12 00:55:00
6:15 PM,20.1,1.4,44,30.05,10.0,Calm,Calm,-,N/A,,Clear,0,2012-12-12 01:15:00
6:35 PM,19.4,1.8,46,30.05,10.0,Calm,Calm,-,N/A,,Clear,0,2012-12-12 01:35:00
6:55 PM,18.3,2.1,49,30.07,10.0,Calm,Calm,-,N/A,,Clear,0,2012-12-12 01:55:00
7:15 PM,19.6,1.6,46,30.07,10.0,Calm,Calm,-,N/A,,Clear,0,2012-12-12 02:15:00
7:35 PM,17.8,2.1,50,30.07,10.0,Calm,Calm,-,N/A,,Clear,0,2012-12-12 02:35:00
7:55 PM,15.4,1.8,55,30.07,10.0,NNE,3.5,-,N/A,,Clear,30,2012-12-12 02:55:00
8:15 PM,17.4,1.8,50,30.07,10.0,Calm,Calm,-,N/A,,Clear,0,2012-12-12 03:15:00
8:35 PM,16.5,1.8,52,30.07,10.0,NE,3.5,-,N/A,,Clear,50,2012-12-12 03:35:00
8:55 PM,14.4,1.8,57,30.08,10.0,NE,3.5,-,N/A,,Clear,40,2012-12-12 03:55:00
9:15 PM,15.1,2.5,58,30.08,10.0,Calm,Calm,-,N/A,,Clear,0,2012-12-12 04:15:00
9:35 PM,14.4,1.9,58,30.08,10.0,Calm,Calm,-,N/A,,Clear,0,2012-12-12 04:35:00
9:55 PM,12.6,1.6,62,30.08,10.0,Calm,Calm,-,N/A,,Clear,0,2012-12-12 04:55:00
10:15 PM,14.2,2.3,59,30.08,10.0,Calm,Calm,-,N/A,,Clear,0,2012-12-12 05:15:00
10:35 PM,13.6,2.3,61,30.09,10.0,Calm,Calm,-,N/A,,Clear,0,2012-12-12 05:35:00
10:55 PM,11.7,1.6,64,30.09,10.0,NW,3.5,-,N/A,,Clear,310,2012-12-12 05:55:00
11:15 PM,12.9,2.1,62,30.10,10.0,Calm,Calm,-,N/A,,Clear,0,2012-12-12 06:15:00
11:35 PM,12.2,1.2,61,30.09,10.0,Calm,Calm,-,N/A,,Clear,0,2012-12-12 06:35:00
11:55 PM,11.5,1.8,65,30.08,10.0,Calm,Calm,-,N/A,,Clear,0,2012-12-12 06:55:00